Flag for U.S.A. Weather past 2 weeks in Santa Cruz, California, U.S.A.

Now
61 °F

Clear.


Feels Like: 61 °F
Forecast: 59 / 69 °F
Wind: 5 mph from East

Location: Watsonville Municipal Airport

Current Time: Jul 6, 2015 at 10:42:40 PM

Latest Report: Jul 6, 2015 at 9:53 PM


Visibility: 10 mi

Pressure: 30.04 "Hg

Humidity: 83%

Dew point: 56 °F

Location of Santa CruzLocation

Historic Weather in Santa Cruz — Graph

°F

Santa Cruz temperature yesterday

Maximum temperature yesterday: 70 °F (at 1:53 PM)
Minimum temperature yesterday: 58 °F (at 5:53 AM)
Average temperature yesterday: 62 °F

Past Weeks' High & Low Weather Summary

 TemperatureHumidityPressure
High84 °F (Jul 1, 11:53 AM)100% (Jun 26, 12:53 AM)30.10 "Hg (Jun 26, 12:53 AM)
Low47 °F (Jun 22, 5:53 AM)42% (Jun 25, 4:53 PM)29.84 "Hg (Jul 1, 3:53 AM)
Average62 °F80%29.97 "Hg
* Reported Jun 21 9:53 PM — Jul 6 9:53 PM, Santa Cruz, Weather by CustomWeather, © 2015

Note: Actual official high and low records may vary slightly from our data, if they occured in-between our weather recording intervals... More about our weather records

Advertising

Santa Cruz weather history for previous 24 hours

 ConditionsComfort  
Time TempWeatherWind HumidityBarometerVisibility
9:53 PM
Mon, Jul 6
61 °FClear.5 mph83%30.04 "Hg10 mi
8:53 PM62 °FSunny.8 mph83%30.02 "Hg10 mi
7:53 PM65 °FSunny.8 mph76%30.01 "Hg10 mi
6:53 PM67 °FSunny.6 mph73%30.01 "Hg10 mi
5:53 PM68 °FSunny.7 mph68%30.01 "Hg10 mi
4:53 PM69 °FSunny.8 mph66%30.02 "Hg10 mi
3:53 PM67 °FSunny.10 mph71%30.05 "Hg10 mi
2:53 PM70 °FSunny.9 mph61%30.06 "Hg10 mi
1:53 PM71 °FSunny.12 mph59%30.07 "Hg10 mi
12:53 PM70 °FSunny.7 mph61%30.07 "Hg10 mi
11:53 AM70 °FOvercast.7 mph66%30.09 "Hg10 mi
10:53 AM65 °FOvercast.3 mph76%30.09 "Hg10 mi
9:53 AM63 °FOvercast.No wind81%30.10 "Hg10 mi
8:53 AM62 °FOvercast.No wind83%30.09 "Hg10 mi
7:53 AM60 °FOvercast.No wind86%30.09 "Hg10 mi
6:53 AM59 °FLow clouds.No wind96%30.07 "Hg10 mi
5:53 AM59 °FLight rain. Fog.5 mph96%30.06 "Hg4 mi
4:53 AM59 °FFog.No wind96%30.04 "Hg5 mi
3:53 AM59 °FLow clouds.No wind96%30.03 "Hg7 mi
2:53 AM59 °FLow clouds.3 mph93%30.03 "Hg10 mi
1:53 AM59 °FFog.No wind96%30.03 "Hg6 mi
12:53 AM59 °FLow clouds.5 mph93%30.03 "Hg10 mi
11:53 PM
Sun, Jul 5
60 °FLow clouds.No wind90%30.02 "Hg8 mi
10:53 PM60 °FLow clouds.5 mph90%30.02 "Hg10 mi
Weather by CustomWeather, © 2015

See weather overviewHow to use our weather pages